TimeCDT,TemperatureF,Dew PointF,Humidity,Sea Level PressureIn,VisibilityMPH,Wind Direction,Wind SpeedMPH,Gust SpeedMPH,PrecipitationIn,Events,Conditions,WindDirDegrees,DateUTC
12:52 AM,32.0,27.0,82,30.26,10.0,SSE,6.9,-,N/A,,Clear,160,2014-03-30 05:52:00
1:52 AM,30.9,26.1,82,30.26,10.0,SSE,6.9,-,N/A,,Clear,160,2014-03-30 06:52:00
2:52 AM,32.0,27.0,82,30.22,9.0,SE,10.4,-,N/A,,Clear,140,2014-03-30 07:52:00
3:52 AM,30.9,27.0,85,30.22,8.0,SSE,9.2,-,N/A,,Clear,150,2014-03-30 08:52:00
4:52 AM,32.0,27.0,82,30.20,7.0,SE,10.4,-,N/A,,Clear,140,2014-03-30 09:52:00
5:52 AM,32.0,28.0,85,30.22,6.0,SSE,9.2,-,N/A,,Clear,160,2014-03-30 10:52:00
6:52 AM,33.1,28.0,82,30.22,5.0,SSE,10.4,-,N/A,,Haze,160,2014-03-30 11:52:00
7:52 AM,34.0,28.9,82,30.23,5.0,SSE,11.5,-,N/A,,Haze,160,2014-03-30 12:52:00
8:52 AM,37.9,30.9,76,30.22,6.0,South,12.7,-,N/A,,Haze,170,2014-03-30 13:52:00
9:52 AM,44.1,34.0,68,30.19,6.0,South,13.8,-,N/A,,Haze,170,2014-03-30 14:52:00
10:52 AM,48.0,35.1,61,30.18,7.0,SSE,17.3,-,N/A,,Clear,160,2014-03-30 15:52:00
11:52 AM,53.1,36.0,52,30.14,8.0,South,20.7,-,N/A,,Clear,180,2014-03-30 16:52:00
12:52 PM,55.9,36.0,47,30.12,9.0,South,16.1,-,N/A,,Clear,180,2014-03-30 17:52:00
1:52 PM,57.0,37.0,47,30.10,10.0,South,21.9,26.5,N/A,,Clear,180,2014-03-30 18:52:00
2:52 PM,61.0,37.9,42,30.06,10.0,South,21.9,26.5,N/A,,Clear,180,2014-03-30 19:52:00
3:52 PM,61.0,37.0,41,30.03,10.0,South,21.9,29.9,N/A,,Clear,180,2014-03-30 20:52:00
4:52 PM,63.0,37.0,38,30.00,10.0,South,21.9,28.8,N/A,,Clear,170,2014-03-30 21:52:00
5:52 PM,61.0,35.1,38,29.99,10.0,South,16.1,29.9,N/A,,Clear,180,2014-03-30 22:52:00
6:52 PM,57.9,36.0,44,29.97,10.0,SSE,18.4,-,N/A,,Clear,160,2014-03-30 23:52:00
7:52 PM,54.0,37.0,53,29.96,10.0,SSE,18.4,-,N/A,,Clear,150,2014-03-31 00:52:00
8:52 PM,53.1,37.0,55,29.96,10.0,SSE,19.6,-,N/A,,Clear,160,2014-03-31 01:52:00
9:52 PM,52.0,37.9,59,29.96,9.0,SSE,21.9,29.9,N/A,,Clear,160,2014-03-31 02:52:00
10:52 PM,50.0,37.0,61,29.96,9.0,SSE,16.1,-,N/A,,Clear,160,2014-03-31 03:52:00
11:52 PM,50.0,37.0,61,29.96,10.0,South,15.0,-,N/A,,Clear,170,2014-03-31 04:52:00